Weather History for KBKF - August, 2013

Change the Weather History Date:

Saturday, August 17, 2013

  Actual Average Record
Temperature  
Mean Temperature 76 °F -  
Max Temperature 93 °F 82 °F 93 °F (2011)
Min Temperature 60 °F 56 °F 50 °F (2012)
Cooling Degree Days 12    
Growing Degree Days 26 (Base 50)    
Moisture  
Dew Point 41 °F    
Average Humidity 33    
Maximum Humidity 55    
Minimum Humidity 8    
Precipitation  
Precipitation 0.00 in - - ()
Sea Level Pressure  
Sea Level Pressure 29.93 in    
Wind  
Wind Speed 8 mph (SSW)    
Max Wind Speed 28 mph    
Max Gust Speed 30 mph    
Visibility 10 miles    
Events      
Averages and records for this station are not official NWS values.
T = Trace of Precipitation, MM = Missing Value Source: NWS Daily Summary

Daily Weather History Graph

Daily Weather History Graph

Search for Another Location

Airport or City:

Trip Planner

Search our weather history database for the weather conditions in past years. The results will help you decide how hot, cold, wet, or windy it might be!

Date:

Astronomy

Aug. 17, 2013 Rise Set
Actual Time 6:13 AM MDT 7:52 PM MDT
Civil Twilight 5:44 AM MDT 8:20 PM MDT
Nautical Twilight 5:09 AM MDT 8:55 PM MDT
Astronomical Twilight 4:33 AM MDT 9:31 PM MDT
Moon 5:09 PM MDT (8/17) 2:19 AM MDT (8/17)
Length of Visible Light 14h 35m
Length of Day
13h 38m
Waxing Gibbous, 85% of the Moon is Illuminated
Aug 17
Waxing Gibbous
Aug 20
Full
Aug 28
Last Quarter
Sep 5
New
Sep 12
First Quarter

Hourly Weather History & Observations

Time (MDT) Temp. Dew Point Humidity Pressure Visibility Wind Dir Wind Speed Gust Speed Precip Events Conditions
12:55 AM 66.2 °F 44.6 °F 46% 29.98 in 10.0 mi South 8.1 mph - N/A   Partly Cloudy
1:55 AM 64.4 °F 42.8 °F 45% 29.99 in 10.0 mi SSW 1.2 mph - N/A   Partly Cloudy
2:55 AM 64.4 °F 44.6 °F 49% 29.98 in 10.0 mi SSW 9.2 mph - N/A   Partly Cloudy
3:55 AM 62.6 °F 42.8 °F 48% 29.98 in 10.0 mi SSW 8.1 mph - N/A   Partly Cloudy
4:55 AM 60.8 °F 44.6 °F 55% 29.97 in 10.0 mi South 8.1 mph - N/A   Partly Cloudy
5:55 AM 60.8 °F 44.6 °F 55% 29.98 in 10.0 mi SSW 6.9 mph - N/A   Mostly Cloudy
6:55 AM 62.6 °F 44.6 °F 52% 29.98 in 25.0 mi SSW 10.4 mph - N/A   Mostly Cloudy
7:55 AM 64.4 °F 46.4 °F 52% 30.01 in 25.0 mi SSW 4.6 mph - N/A   Mostly Cloudy
8:55 AM 71.6 °F 44.6 °F 38% 29.99 in 25.0 mi SW 8.1 mph - N/A   Mostly Cloudy
9:55 AM 78.8 °F 44.6 °F 30% 29.97 in 25.0 mi SW 5.8 mph - N/A   Scattered Clouds
10:55 AM 84.2 °F 39.2 °F 20% 29.96 in 25.0 mi WSW 4.6 mph - N/A   Mostly Cloudy
11:55 AM 86.0 °F 37.4 °F 18% 29.94 in 25.0 mi NNW 3.5 mph - N/A   Mostly Cloudy
12:55 PM 89.6 °F 32.0 °F 13% 29.92 in 25.0 mi ENE 3.5 mph - N/A   Mostly Cloudy
1:55 PM 91.4 °F 28.4 °F 10% 29.90 in 10.0 mi ENE 4.6 mph - N/A   Mostly Cloudy
2:55 PM 93.2 °F 28.4 °F 10% 29.88 in 10.0 mi NW 3.5 mph - N/A   Scattered Clouds
3:55 PM 93.2 °F 23.0 °F 8% 29.88 in 10.0 mi NW 5.8 mph - N/A   Mostly Cloudy
4:55 PM 91.4 °F 32.0 °F 12% 29.86 in 10.0 mi East 5.8 mph - N/A   Mostly Cloudy
5:55 PM 91.4 °F 30.2 °F 11% 29.86 in 10.0 mi Calm Calm - N/A   Scattered Clouds
6:55 PM 82.4 °F 37.4 °F 20% 29.87 in 10.0 mi SSE 11.5 mph - N/A   Mostly Cloudy
7:55 PM 78.8 °F 48.2 °F 34% 29.89 in 10.0 mi South 15.0 mph - N/A   Mostly Cloudy
8:55 PM 77.0 °F 48.2 °F 36% 29.90 in 10.0 mi SSE 13.8 mph - N/A   Mostly Cloudy
9:55 PM 75.2 °F 51.8 °F 44% 29.89 in 10.0 mi South 18.4 mph 24.2 mph N/A   Scattered Clouds
10:55 PM 75.2 °F 53.6 °F 47% 29.88 in 10.0 mi South 19.6 mph - N/A   Scattered Clouds
11:55 PM 75.2 °F 53.6 °F 47% 29.88 in 10.0 mi South 27.6 mph 29.9 mph N/A   Mostly Cloudy